Regional Weather Roundup
Issued by NWS Cleveland, OH

Home | Current Version | Previous Version | Graphics & Text | Print | Product List | Glossary On
Versions: 1 2 3 4 5 6 7 8 9 10 11 12 13 14 15 16 17 18 19 20 21 22 23 24 25 26 27 28 29 30 31 32 33 34 35 36 37 38 39 40 41 42 43 44 45 46 47 48 49 50
000
ASUS41 KCLE 241112
RWRCLE
OHIO REGIONAL WEATHER ROUNDUP
NATIONAL WEATHER SERVICE WILMINGTON, OH
600 AM EST FRI FEB 24 2017

NOTE: "FAIR" INDICATES FEW OR NO CLOUDS BELOW 12,000 FEET WITH NO
SIGNIFICANT WEATHER AND/OR OBSTRUCTIONS TO VISIBILITY.

OHZ001>008-015>018-024>027-034-035-043-044-241200-
   NORTHWEST OHIO

CITY           SKY/WX    TMP DP  RH WIND       PRES   REMARKS
DEFIANCE       MOCLDY    41  41 100 E8        29.64F
FINDLAY        FAIR      50  46  86 SE7       29.65F
TOLEDO EXPRESS CLOUDY    41  41 100 E9        29.65F FOG
TOLEDO EXEC    CLOUDY    42  42 100 NE8       29.68F FOG
LIMA           FAIR      56  53  90 SE8       29.65F
$$

OHZ009>014-019>023-028>033-038-089-241200-
   NORTHEAST OHIO

CITY           SKY/WX    TMP DP  RH WIND       PRES   REMARKS
CLE-HOPKINS    MOCLDY    60  52  74 S13       29.73S
CLE-LAKEFRONT  MOCLDY    41  39  93 CALM      29.70F FOG
CUY CO. ARPT   NOT AVBL
LORAIN-ELYRIA  CLOUDY    54  51  90 S12       29.70F
ASHTABULA      CLOUDY    46  46 100 CALM      29.74F FOG
AKRON-CANTON   MOCLDY    57  52  83 S10       29.75S
WOOSTER        CLOUDY    57  53  86 S9        29.75R
MANSFIELD      FAIR      57  54  89 S10       29.73S
YOUNGSTOWN     FAIR      56  52  86 S9        29.77S
$$

OHZ042-051>053-060>062-070>072-077>081-241200-
  SOUTHWEST OHIO

CITY           SKY/WX    TMP DP  RH WIND       PRES   REMARKS
CINC-COVINGTON FAIR      59  53  80 S14       29.70R
CINC-LUNKEN    FAIR      59  54  83 S13       29.72R
HAMILTON       FAIR      61  54  77 S6        29.70S
DAYTON         FAIR      60  52  74 S16       29.69R
WRIGHT-PAT AFB FAIR      59  55  88 S14       29.69R
DAYTON GENERAL FAIR      59  52  77 S14       29.70R
WILMINGTON     FAIR      58  52  80 S13       29.72S
$$

OHZ036-037-039>041-045>050-054>059-063>069-073>076-082>088-241200-
  CENTRAL AND SOUTHEAST OHIO

CITY           SKY/WX    TMP DP  RH WIND       PRES   REMARKS
COLUMBUS       FAIR      62  54  74 S8        29.73F
OSU AIRPORT    FAIR      57  54  89 S10       29.72F
BOLTON FIELD   FAIR      55  53  92 S10       29.72F
RICKENBACK AFB FAIR      58  54  85 S13       29.73F
NEWARK         CLOUDY    60  53  77 S6        29.75S
MARION         FAIR      57  52  83 S12       29.71F
LANCASTER      CLOUDY    64  53  67 S10       29.76S
ZANESVILLE     FAIR      58  52  80 S6        29.78R
NEW PHILLY     CLOUDY    55  54  96 S5        29.78R
$$



USA.gov is the U.S. government's official web portal to all federal, state and local government web resources and services.